Wetterdaten: Mittwoch, 04.12.2019
Datum Zeit Temp. I. Temp. A. Boden 5 cm Feuchte A. Sonne Luftdruck Regen Wind Sonnenschein Zeit Regen
04.12.2019 00:00 22,0 C -3,4 C -0,7 C 83 % 2 % 1028 hPa 0,0 l/m 0,0 km/h (0 Bft) 0 min 0 min
04.12.2019 00:03 22,0 C -3,4 C -1,0 C 83 % 2 % 1028 hPa 0,0 l/m 0,0 km/h (0 Bft) 0 min 0 min
04.12.2019 00:06 22,0 C -3,4 C -0,7 C 83 % 1 % 1028 hPa 0,0 l/m 0,0 km/h (0 Bft) 0 min 0 min
04.12.2019 00:09 22,0 C -3,4 C -1,5 C 83 % 1 % 1028 hPa 0,0 l/m 0,0 km/h (0 Bft) 0 min 0 min
04.12.2019 00:12 22,0 C -3,4 C -1,7 C 83 % 2 % 1028 hPa 0,0 l/m 0,0 km/h (0 Bft) 0 min 0 min
04.12.2019 00:15 22,0 C -3,4 C -0,9 C 83 % 1 % 1028 hPa 0,0 l/m 0,0 km/h (0 Bft) 0 min 0 min
04.12.2019 00:18 22,0 C -3,4 C -0,6 C 83 % 1 % 1028 hPa 0,0 l/m 0,0 km/h (0 Bft) 0 min 0 min
04.12.2019 00:21 22,0 C -3,4 C -1,1 C 83 % 1 % 1028 hPa 0,0 l/m 0,0 km/h (0 Bft) 0 min 0 min
04.12.2019 00:24 22,0 C -3,4 C -1,7 C 83 % 2 % 1028 hPa 0,0 l/m 0,0 km/h (0 Bft) 0 min 0 min
04.12.2019 00:27 22,0 C -3,4 C -0,8 C 83 % 1 % 1028 hPa 0,0 l/m 0,0 km/h (0 Bft) 0 min 0 min
04.12.2019 00:30 22,0 C -3,4 C -1,0 C 83 % 1 % 1028 hPa 0,0 l/m 0,0 km/h (0 Bft) 0 min 0 min
04.12.2019 00:33 22,0 C -3,5 C -2,2 C 83 % 1 % 1027 hPa 0,0 l/m 0,0 km/h (0 Bft) 0 min 0 min
04.12.2019 00:36 22,0 C -3,5 C -1,4 C 83 % 1 % 1027 hPa 0,0 l/m 0,0 km/h (0 Bft) 0 min 0 min
04.12.2019 00:39 22,0 C -3,5 C -1,0 C 83 % 1 % 1027 hPa 0,0 l/m 0,0 km/h (0 Bft) 0 min 0 min
04.12.2019 00:42 22,0 C -3,5 C -1,3 C 83 % 1 % 1027 hPa 0,0 l/m 0,0 km/h (0 Bft) 0 min 0 min
04.12.2019 00:45 22,0 C -3,5 C -1,4 C 83 % 1 % 1027 hPa 0,0 l/m 0,0 km/h (0 Bft) 0 min 0 min
04.12.2019 00:54 22,0 C -3,6 C -1,4 C 83 % 1 % 1027 hPa 0,0 l/m 0,0 km/h (0 Bft) 0 min 0 min
04.12.2019 00:57 22,0 C -3,7 C -1,2 C 83 % 1 % 1027 hPa 0,0 l/m 0,0 km/h (0 Bft) 0 min 0 min
04.12.2019 01:00 22,0 C -3,6 C -1,2 C 83 % 1 % 1027 hPa 0,0 l/m 0,0 km/h (0 Bft) 0 min 0 min
04.12.2019 01:03 22,0 C -3,7 C -1,9 C 83 % 1 % 1027 hPa 0,0 l/m 0,0 km/h (0 Bft) 0 min 0 min
04.12.2019 01:06 22,1 C -3,7 C -0,8 C 83 % 2 % 1027 hPa 0,0 l/m 0,0 km/h (0 Bft) 0 min 0 min
04.12.2019 01:09 22,1 C -3,7 C -0,8 C 83 % 2 % 1027 hPa 0,0 l/m 0,0 km/h (0 Bft) 0 min 0 min
04.12.2019 01:12 22,1 C -3,7 C -0,7 C 83 % 2 % 1027 hPa 0,0 l/m 0,0 km/h (0 Bft) 0 min 0 min
04.12.2019 01:15 22,0 C -3,7 C -0,8 C 83 % 2 % 1027 hPa 0,0 l/m 0,0 km/h (0 Bft) 0 min 0 min
04.12.2019 01:18 22,0 C -3,7 C -0,9 C 83 % 2 % 1027 hPa 0,0 l/m 0,0 km/h (0 Bft) 0 min 0 min
04.12.2019 01:21 22,0 C -3,8 C -1,1 C 83 % 2 % 1027 hPa 0,0 l/m 0,0 km/h (0 Bft) 0 min 0 min
04.12.2019 01:24 22,0 C -3,8 C -1,8 C 83 % 2 % 1027 hPa 0,0 l/m 0,0 km/h (0 Bft) 0 min 0 min
04.12.2019 01:27 22,0 C -3,8 C -2,4 C 83 % 2 % 1027 hPa 0,0 l/m 0,0 km/h (0 Bft) 0 min 0 min
04.12.2019 01:30 22,1 C -3,8 C -2,2 C 83 % 2 % 1027 hPa 0,0 l/m 0,0 km/h (0 Bft) 0 min 0 min
04.12.2019 01:33 22,0 C -3,8 C -2,4 C 84 % 1 % 1027 hPa 0,0 l/m 0,0 km/h (0 Bft) 0 min 0 min
04.12.2019 01:36 22,1 C -3,8 C -2,4 C 83 % 2 % 1027 hPa 0,0 l/m 0,1 km/h (0 Bft) 0 min 0 min
04.12.2019 01:39 22,0 C -3,8 C -1,9 C 84 % 2 % 1027 hPa 0,0 l/m 0,0 km/h (0 Bft) 0 min 0 min
04.12.2019 01:42 22,0 C -3,8 C -1,5 C 84 % 2 % 1027 hPa 0,0 l/m 0,0 km/h (0 Bft) 0 min 0 min
04.12.2019 01:45 22,0 C -3,8 C -1,3 C 84 % 2 % 1027 hPa 0,0 l/m 0,0 km/h (0 Bft) 0 min 0 min
04.12.2019 01:48 22,0 C -3,8 C -0,9 C 83 % 2 % 1027 hPa 0,0 l/m 0,0 km/h (0 Bft) 0 min 0 min
04.12.2019 01:51 22,1 C -3,8 C -1,0 C 83 % 2 % 1027 hPa 0,0 l/m 0,0 km/h (0 Bft) 0 min 0 min
04.12.2019 01:54 22,1 C -3,8 C -0,9 C 83 % 2 % 1027 hPa 0,0 l/m 0,0 km/h (0 Bft) 0 min 0 min
04.12.2019 01:57 22,1 C -3,8 C -1,2 C 83 % 2 % 1027 hPa 0,0 l/m 0,0 km/h (0 Bft) 0 min 0 min
04.12.2019 02:00 22,0 C -3,8 C -1,3 C 83 % 2 % 1027 hPa 0,0 l/m 0,0 km/h (0 Bft) 0 min 0 min
04.12.2019 02:03 22,1 C -3,8 C -1,2 C 83 % 2 % 1027 hPa 0,0 l/m 0,0 km/h (0 Bft) 0 min 0 min
04.12.2019 02:06 22,1 C -3,8 C -1,7 C 83 % 2 % 1027 hPa 0,0 l/m 0,0 km/h (0 Bft) 0 min 0 min
04.12.2019 02:09 22,1 C -3,8 C -0,9 C 83 % 2 % 1027 hPa 0,0 l/m 0,0 km/h (0 Bft) 0 min 0 min
04.12.2019 02:12 22,1 C -3,8 C -1,3 C 83 % 2 % 1027 hPa 0,0 l/m 0,0 km/h (0 Bft) 0 min 0 min
04.12.2019 02:15 22,1 C -3,9 C -1,6 C 83 % 2 % 1027 hPa 0,0 l/m 0,0 km/h (0 Bft) 0 min 0 min
04.12.2019 02:18 22,1 C -4,0 C -2,0 C 83 % 2 % 1027 hPa 0,0 l/m 0,0 km/h (0 Bft) 0 min 0 min
04.12.2019 02:21 22,1 C -4,0 C -2,1 C 83 % 2 % 1027 hPa 0,0 l/m 0,2 km/h (0 Bft) 0 min 0 min
04.12.2019 02:24 22,1 C -4,0 C -1,8 C 83 % 2 % 1027 hPa 0,0 l/m 0,0 km/h (0 Bft) 0 min 0 min
04.12.2019 02:27 22,1 C -3,9 C -1,9 C 83 % 2 % 1027 hPa 0,0 l/m 0,0 km/h (0 Bft) 0 min 0 min
04.12.2019 02:30 22,1 C -3,9 C -2,4 C 83 % 2 % 1027 hPa 0,0 l/m 0,0 km/h (0 Bft) 0 min 0 min
04.12.2019 02:33 22,1 C -3,8 C -2,4 C 83 % 2 % 1027 hPa 0,0 l/m 0,0 km/h (0 Bft) 0 min 0 min
04.12.2019 02:36 22,1 C -3,8 C -2,1 C 84 % 2 % 1027 hPa 0,0 l/m 0,0 km/h (0 Bft) 0 min 0 min
04.12.2019 02:39 22,1 C -3,8 C -1,5 C 84 % 2 % 1027 hPa 0,0 l/m 0,0 km/h (0 Bft) 0 min 0 min
04.12.2019 02:42 22,1 C -3,8 C -1,2 C 83 % 2 % 1027 hPa 0,0 l/m 0,0 km/h (0 Bft) 0 min 0 min
04.12.2019 02:45 22,1 C -3,9 C -1,3 C 83 % 2 % 1027 hPa 0,0 l/m 0,0 km/h (0 Bft) 0 min 0 min
04.12.2019 02:48 22,1 C -4,1 C -1,9 C 83 % 2 % 1027 hPa 0,0 l/m 0,0 km/h (0 Bft) 0 min 0 min
04.12.2019 02:51 22,1 C -4,1 C -2,0 C 83 % 2 % 1027 hPa 0,0 l/m 0,0 km/h (0 Bft) 0 min 0 min
04.12.2019 02:54 22,1 C -4,1 C -1,5 C 83 % 2 % 1027 hPa 0,0 l/m 0,0 km/h (0 Bft) 0 min 0 min
04.12.2019 02:57 22,1 C -4,2 C -1,7 C 83 % 2 % 1026 hPa 0,0 l/m 0,0 km/h (0 Bft) 0 min 0 min
04.12.2019 03:00 22,1 C -4,2 C -1,4 C 83 % 2 % 1026 hPa 0,0 l/m 0,0 km/h (0 Bft) 0 min 0 min
04.12.2019 03:03 22,1 C -4,2 C -1,5 C 83 % 2 % 1026 hPa 0,0 l/m 0,0 km/h (0 Bft) 0 min 0 min
04.12.2019 03:06 22,1 C -4,2 C -2,1 C 83 % 2 % 1026 hPa 0,0 l/m 0,0 km/h (0 Bft) 0 min 0 min
04.12.2019 03:09 22,1 C -4,2 C -1,6 C 83 % 2 % 1026 hPa 0,0 l/m 0,0 km/h (0 Bft) 0 min 0 min
04.12.2019 03:12 22,1 C -4,2 C -1,6 C 83 % 2 % 1026 hPa 0,0 l/m 0,0 km/h (0 Bft) 0 min 0 min
04.12.2019 03:15 22,1 C -4,2 C -1,3 C 83 % 2 % 1026 hPa 0,0 l/m 0,0 km/h (0 Bft) 0 min 0 min
04.12.2019 03:18 22,1 C -4,2 C -1,3 C 83 % 1 % 1026 hPa 0,0 l/m 0,0 km/h (0 Bft) 0 min 0 min
04.12.2019 03:21 22,1 C -4,2 C -1,4 C 83 % 1 % 1026 hPa 0,0 l/m 0,0 km/h (0 Bft) 0 min 0 min
04.12.2019 03:24 22,1 C -4,3 C -1,3 C 83 % 2 % 1026 hPa 0,0 l/m 0,0 km/h (0 Bft) 0 min 0 min
04.12.2019 03:27 22,1 C -4,2 C -1,3 C 83 % 2 % 1026 hPa 0,0 l/m 0,0 km/h (0 Bft) 0 min 0 min
04.12.2019 03:30 22,1 C -4,3 C -1,4 C 83 % 1 % 1026 hPa 0,0 l/m 0,0 km/h (0 Bft) 0 min 0 min
04.12.2019 03:33 22,1 C -4,3 C -1,9 C 83 % 2 % 1026 hPa 0,0 l/m 0,0 km/h (0 Bft) 0 min 0 min
04.12.2019 03:36 22,1 C -4,4 C -1,8 C 83 % 1 % 1026 hPa 0,0 l/m 0,0 km/h (0 Bft) 0 min 0 min
04.12.2019 03:39 22,1 C -4,4 C -1,5 C 83 % 1 % 1026 hPa 0,0 l/m 0,0 km/h (0 Bft) 0 min 0 min
04.12.2019 03:42 22,1 C -4,4 C -1,4 C 83 % 2 % 1026 hPa 0,0 l/m 0,0 km/h (0 Bft) 0 min 0 min
04.12.2019 03:45 22,1 C -4,4 C -1,5 C 83 % 2 % 1026 hPa 0,0 l/m 0,0 km/h (0 Bft) 0 min 0 min
04.12.2019 03:48 22,1 C -4,4 C -2,1 C 83 % 2 % 1026 hPa 0,0 l/m 0,0 km/h (0 Bft) 0 min 0 min
04.12.2019 03:51 22,1 C -4,5 C -2,4 C 83 % 2 % 1026 hPa 0,0 l/m 0,0 km/h (0 Bft) 0 min 0 min
04.12.2019 03:54 22,1 C -4,5 C -2,0 C 83 % 2 % 1026 hPa 0,0 l/m 0,0 km/h (0 Bft) 0 min 0 min
04.12.2019 03:57 22,1 C -4,5 C -1,3 C 83 % 2 % 1026 hPa 0,0 l/m 0,0 km/h (0 Bft) 0 min 0 min
04.12.2019 04:00 22,1 C -4,5 C -1,4 C 83 % 2 % 1026 hPa 0,0 l/m 0,0 km/h (0 Bft) 0 min 0 min
04.12.2019 04:03 22,1 C -4,5 C -1,4 C 83 % 2 % 1026 hPa 0,0 l/m 0,0 km/h (0 Bft) 0 min 0 min
04.12.2019 04:06 22,1 C -4,5 C -1,5 C 83 % 2 % 1026 hPa 0,0 l/m 0,0 km/h (0 Bft) 0 min 0 min
04.12.2019 04:09 22,1 C -4,5 C -1,6 C 83 % 2 % 1026 hPa 0,0 l/m 0,0 km/h (0 Bft) 0 min 0 min
04.12.2019 04:12 22,1 C -4,6 C -1,7 C 83 % 2 % 1026 hPa 0,0 l/m 0,0 km/h (0 Bft) 0 min 0 min
04.12.2019 04:15 22,1 C -4,6 C -1,5 C 83 % 2 % 1026 hPa 0,0 l/m 0,0 km/h (0 Bft) 0 min 0 min
04.12.2019 04:18 22,1 C -4,5 C -1,7 C 83 % 2 % 1026 hPa 0,0 l/m 0,0 km/h (0 Bft) 0 min 0 min
04.12.2019 04:21 22,1 C -4,5 C -1,9 C 83 % 2 % 1026 hPa 0,0 l/m 0,0 km/h (0 Bft) 0 min 0 min
04.12.2019 04:24 22,1 C -4,5 C -1,9 C 83 % 2 % 1026 hPa 0,0 l/m 0,0 km/h (0 Bft) 0 min 0 min
04.12.2019 04:27 22,1 C -4,5 C -2,2 C 83 % 2 % 1026 hPa 0,0 l/m 0,0 km/h (0 Bft) 0 min 0 min
04.12.2019 04:30 22,1 C -4,5 C -1,8 C 83 % 2 % 1026 hPa 0,0 l/m 0,0 km/h (0 Bft) 0 min 0 min
04.12.2019 04:33 22,1 C -4,5 C -1,4 C 83 % 2 % 1026 hPa 0,0 l/m 0,0 km/h (0 Bft) 0 min 0 min
04.12.2019 04:36 22,1 C -4,5 C -1,3 C 83 % 2 % 1026 hPa 0,0 l/m 0,0 km/h (0 Bft) 0 min 0 min
04.12.2019 04:39 22,1 C -4,5 C -1,3 C 83 % 2 % 1026 hPa 0,0 l/m 0,0 km/h (0 Bft) 0 min 0 min
04.12.2019 04:42 22,1 C -4,5 C -1,5 C 83 % 2 % 1026 hPa 0,0 l/m 0,0 km/h (0 Bft) 0 min 0 min
04.12.2019 04:45 22,1 C -4,5 C -1,4 C 83 % 2 % 1026 hPa 0,0 l/m 0,0 km/h (0 Bft) 0 min 0 min
04.12.2019 04:48 22,1 C -4,5 C -1,6 C 83 % 2 % 1026 hPa 0,0 l/m 0,0 km/h (0 Bft) 0 min 0 min
04.12.2019 04:51 22,1 C -4,5 C -1,4 C 83 % 2 % 1026 hPa 0,0 l/m 0,0 km/h (0 Bft) 0 min 0 min
04.12.2019 04:54 22,1 C -4,5 C -1,3 C 83 % 2 % 1026 hPa 0,0 l/m 0,0 km/h (0 Bft) 0 min 0 min
04.12.2019 04:57 22,1 C -4,5 C -1,3 C 83 % 2 % 1025 hPa 0,0 l/m 0,0 km/h (0 Bft) 0 min 0 min
04.12.2019 05:00 22,1 C -4,5 C -1,2 C 83 % 2 % 1025 hPa 0,0 l/m 0,0 km/h (0 Bft) 0 min 0 min
04.12.2019 05:03 22,1 C -4,5 C -1,2 C 83 % 2 % 1025 hPa 0,0 l/m 0,0 km/h (0 Bft) 0 min 0 min
04.12.2019 05:06 22,1 C -4,5 C -1,7 C 83 % 2 % 1025 hPa 0,0 l/m 0,0 km/h (0 Bft) 0 min 0 min
04.12.2019 05:09 22,1 C -4,5 C -1,4 C 83 % 2 % 1025 hPa 0,0 l/m 0,0 km/h (0 Bft) 0 min 0 min
04.12.2019 05:12 22,1 C -4,6 C -1,5 C 83 % 2 % 1025 hPa 0,0 l/m 0,0 km/h (0 Bft) 0 min 0 min
04.12.2019 05:15 22,1 C -4,6 C -1,9 C 83 % 2 % 1025 hPa 0,0 l/m 0,0 km/h (0 Bft) 0 min 0 min
04.12.2019 05:18 22,1 C -4,6 C -1,6 C 83 % 2 % 1025 hPa 0,0 l/m 0,0 km/h (0 Bft) 0 min 0 min
04.12.2019 05:21 22,1 C -4,6 C -2,1 C 83 % 2 % 1025 hPa 0,0 l/m 0,0 km/h (0 Bft) 0 min 0 min
04.12.2019 05:24 22,1 C -4,6 C -2,4 C 83 % 2 % 1025 hPa 0,0 l/m 0,0 km/h (0 Bft) 0 min 0 min
04.12.2019 05:27 22,1 C -4,5 C -2,0 C 83 % 2 % 1025 hPa 0,0 l/m 0,1 km/h (0 Bft) 0 min 0 min
04.12.2019 05:30 22,1 C -4,5 C -2,1 C 83 % 2 % 1025 hPa 0,0 l/m 0,1 km/h (0 Bft) 0 min 0 min
04.12.2019 05:33 22,1 C -4,5 C -1,8 C 83 % 2 % 1025 hPa 0,0 l/m 0,0 km/h (0 Bft) 0 min 0 min
04.12.2019 05:36 22,1 C -4,5 C -1,6 C 83 % 2 % 1025 hPa 0,0 l/m 0,0 km/h (0 Bft) 0 min 0 min
04.12.2019 05:39 22,1 C -4,5 C -1,5 C 83 % 2 % 1025 hPa 0,0 l/m 0,0 km/h (0 Bft) 0 min 0 min
04.12.2019 05:42 22,1 C -4,6 C -1,7 C 83 % 2 % 1025 hPa 0,0 l/m 0,0 km/h (0 Bft) 0 min 0 min
04.12.2019 05:45 22,1 C -4,6 C -2,0 C 83 % 2 % 1025 hPa 0,0 l/m 0,0 km/h (0 Bft) 0 min 0 min
04.12.2019 05:48 22,1 C -4,6 C -2,0 C 83 % 2 % 1025 hPa 0,0 l/m 0,0 km/h (0 Bft) 0 min 0 min
04.12.2019 05:51 22,1 C -4,6 C -1,4 C 83 % 2 % 1025 hPa 0,0 l/m 0,0 km/h (0 Bft) 0 min 0 min
04.12.2019 05:54 22,1 C -4,6 C -1,4 C 83 % 2 % 1025 hPa 0,0 l/m 0,0 km/h (0 Bft) 0 min 0 min
04.12.2019 05:57 22,1 C -4,8 C -1,5 C 84 % 2 % 1025 hPa 0,0 l/m 0,0 km/h (0 Bft) 0 min 0 min
04.12.2019 06:00 22,0 C -4,8 C -1,5 C 84 % 2 % 1025 hPa 0,0 l/m 0,0 km/h (0 Bft) 0 min 0 min
04.12.2019 06:03 22,1 C -4,8 C -1,6 C 84 % 2 % 1025 hPa 0,0 l/m 0,0 km/h (0 Bft) 0 min 0 min
04.12.2019 06:06 22,1 C -4,8 C -1,8 C 84 % 2 % 1025 hPa 0,0 l/m 0,0 km/h (0 Bft) 0 min 0 min
04.12.2019 06:09 22,0 C -4,8 C -2,4 C 84 % 2 % 1025 hPa 0,0 l/m 0,0 km/h (0 Bft) 0 min 0 min
04.12.2019 06:12 22,1 C -4,8 C -2,0 C 84 % 2 % 1025 hPa 0,0 l/m 0,0 km/h (0 Bft) 0 min 0 min
04.12.2019 06:15 22,1 C -4,8 C -1,8 C 84 % 2 % 1025 hPa 0,0 l/m 0,0 km/h (0 Bft) 0 min 0 min
04.12.2019 06:18 22,1 C -4,7 C -1,5 C 84 % 2 % 1025 hPa 0,0 l/m 0,0 km/h (0 Bft) 0 min 0 min
04.12.2019 06:21 22,1 C -4,7 C -2,0 C 84 % 2 % 1025 hPa 0,0 l/m 0,0 km/h (0 Bft) 0 min 0 min
04.12.2019 06:24 22,1 C -4,6 C -2,4 C 84 % 2 % 1025 hPa 0,0 l/m 0,0 km/h (0 Bft) 0 min 0 min
04.12.2019 06:27 22,0 C -4,6 C -2,7 C 84 % 2 % 1025 hPa 0,0 l/m 0,0 km/h (0 Bft) 0 min 0 min
04.12.2019 06:30 22,0 C -4,6 C -2,9 C 84 % 2 % 1025 hPa 0,0 l/m 0,0 km/h (0 Bft) 0 min 0 min
04.12.2019 06:33 22,0 C -4,6 C -2,4 C 84 % 2 % 1025 hPa 0,0 l/m 0,0 km/h (0 Bft) 0 min 0 min
04.12.2019 06:36 22,0 C -4,6 C -2,4 C 84 % 2 % 1025 hPa 0,0 l/m 0,0 km/h (0 Bft) 0 min 0 min
04.12.2019 06:39 22,0 C -4,5 C -2,4 C 84 % 2 % 1025 hPa 0,0 l/m 0,0 km/h (0 Bft) 0 min 0 min
04.12.2019 06:42 22,0 C -4,6 C -2,3 C 84 % 2 % 1025 hPa 0,0 l/m 0,0 km/h (0 Bft) 0 min 0 min
04.12.2019 06:45 22,0 C -4,6 C -2,6 C 84 % 2 % 1025 hPa 0,0 l/m 0,0 km/h (0 Bft) 0 min 0 min
04.12.2019 06:48 22,0 C -4,5 C -2,3 C 84 % 2 % 1025 hPa 0,0 l/m 0,0 km/h (0 Bft) 0 min 0 min
04.12.2019 06:51 22,0 C -4,5 C -2,2 C 84 % 2 % 1025 hPa 0,0 l/m 0,0 km/h (0 Bft) 0 min 0 min
04.12.2019 06:54 22,0 C -4,5 C -2,2 C 84 % 2 % 1025 hPa 0,0 l/m 0,0 km/h (0 Bft) 0 min 0 min
04.12.2019 06:57 22,0 C -4,5 C -1,4 C 84 % 2 % 1025 hPa 0,0 l/m 0,0 km/h (0 Bft) 0 min 0 min
04.12.2019 07:00 22,0 C -4,5 C -1,7 C 84 % 2 % 1025 hPa 0,0 l/m 0,0 km/h (0 Bft) 0 min 0 min
04.12.2019 07:03 22,0 C -4,5 C -1,7 C 84 % 2 % 1025 hPa 0,0 l/m 0,3 km/h (0 Bft) 0 min 0 min
04.12.2019 07:06 22,0 C -4,5 C -1,8 C 84 % 2 % 1025 hPa 0,0 l/m 0,3 km/h (0 Bft) 0 min 0 min
04.12.2019 07:09 22,0 C -4,5 C -1,7 C 84 % 2 % 1025 hPa 0,0 l/m 0,0 km/h (0 Bft) 0 min 0 min
04.12.2019 07:12 22,0 C -4,5 C -2,0 C 84 % 2 % 1025 hPa 0,0 l/m 0,0 km/h (0 Bft) 0 min 0 min
04.12.2019 07:15 22,0 C -4,5 C -1,5 C 84 % 2 % 1025 hPa 0,0 l/m 0,1 km/h (0 Bft) 0 min 0 min
04.12.2019 07:18 22,0 C -4,5 C -1,9 C 84 % 2 % 1025 hPa 0,0 l/m 0,0 km/h (0 Bft) 0 min 0 min
04.12.2019 07:21 22,0 C -4,5 C -1,9 C 84 % 2 % 1025 hPa 0,0 l/m 0,0 km/h (0 Bft) 0 min 0 min
04.12.2019 07:24 22,0 C -4,5 C -2,3 C 84 % 2 % 1025 hPa 0,0 l/m 0,0 km/h (0 Bft) 0 min 0 min
04.12.2019 07:27 22,0 C -4,5 C -1,5 C 84 % 2 % 1025 hPa 0,0 l/m 0,0 km/h (0 Bft) 0 min 0 min
04.12.2019 07:30 22,0 C -4,5 C -1,7 C 84 % 2 % 1025 hPa 0,0 l/m 0,0 km/h (0 Bft) 0 min 0 min
04.12.2019 07:33 22,0 C -4,5 C -1,5 C 84 % 2 % 1025 hPa 0,0 l/m 0,0 km/h (0 Bft) 0 min 0 min
04.12.2019 07:36 22,0 C -4,5 C -2,3 C 84 % 2 % 1025 hPa 0,0 l/m 0,0 km/h (0 Bft) 0 min 0 min
04.12.2019 07:39 22,0 C -4,5 C -2,3 C 84 % 3 % 1025 hPa 0,0 l/m 0,0 km/h (0 Bft) 0 min 0 min
04.12.2019 07:42 22,0 C -4,5 C -1,7 C 84 % 3 % 1025 hPa 0,0 l/m 0,0 km/h (0 Bft) 0 min 0 min
04.12.2019 07:45 22,0 C -4,5 C -1,7 C 84 % 3 % 1025 hPa 0,0 l/m 0,0 km/h (0 Bft) 0 min 0 min
04.12.2019 07:48 22,0 C -4,5 C -1,7 C 84 % 4 % 1025 hPa 0,0 l/m 0,0 km/h (0 Bft) 0 min 0 min
04.12.2019 07:51 22,0 C -4,5 C -1,4 C 84 % 4 % 1025 hPa 0,0 l/m 0,2 km/h (0 Bft) 0 min 0 min
04.12.2019 07:54 22,0 C -4,5 C -1,7 C 84 % 4 % 1025 hPa 0,0 l/m 0,0 km/h (0 Bft) 3 min 0 min
04.12.2019 07:57 22,0 C -4,5 C -1,7 C 84 % 5 % 1025 hPa 0,0 l/m 0,0 km/h (0 Bft) 3 min 0 min
04.12.2019 08:00 22,0 C -4,5 C -2,0 C 84 % 5 % 1025 hPa 0,0 l/m 0,0 km/h (0 Bft) 3 min 0 min
04.12.2019 08:03 22,0 C -4,4 C -1,9 C 83 % 5 % 1025 hPa 0,0 l/m 0,0 km/h (0 Bft) 0 min 0 min
04.12.2019 08:06 22,0 C -4,4 C -2,1 C 83 % 6 % 1025 hPa 0,0 l/m 0,0 km/h (0 Bft) 0 min 0 min
04.12.2019 08:09 22,0 C -4,3 C -2,2 C 83 % 7 % 1025 hPa 0,0 l/m 0,0 km/h (0 Bft) 0 min 0 min
04.12.2019 08:12 22,0 C -4,3 C -1,5 C 83 % 7 % 1025 hPa 0,0 l/m 0,0 km/h (0 Bft) 0 min 0 min
04.12.2019 08:15 22,0 C -4,3 C -1,5 C 83 % 7 % 1025 hPa 0,0 l/m 0,0 km/h (0 Bft) 0 min 0 min
04.12.2019 08:18 22,0 C -4,2 C -1,4 C 83 % 8 % 1025 hPa 0,0 l/m 0,0 km/h (0 Bft) 0 min 0 min
04.12.2019 08:21 22,0 C -4,3 C -1,3 C 83 % 8 % 1025 hPa 0,0 l/m 0,0 km/h (0 Bft) 0 min 0 min
04.12.2019 08:24 22,0 C -4,2 C -1,5 C 83 % 9 % 1025 hPa 0,0 l/m 0,0 km/h (0 Bft) 0 min 0 min
04.12.2019 08:27 22,0 C -4,2 C -1,3 C 83 % 9 % 1025 hPa 0,0 l/m 0,0 km/h (0 Bft) 0 min 0 min
04.12.2019 08:30 22,0 C -4,1 C -1,2 C 83 % 10 % 1025 hPa 0,0 l/m 0,0 km/h (0 Bft) 0 min 0 min
04.12.2019 08:33 22,0 C -4,1 C -1,3 C 83 % 10 % 1025 hPa 0,0 l/m 0,0 km/h (0 Bft) 0 min 0 min
04.12.2019 08:36 22,0 C -4,1 C -1,5 C 83 % 10 % 1025 hPa 0,0 l/m 0,0 km/h (0 Bft) 0 min 0 min
04.12.2019 08:39 22,0 C -4,1 C -1,6 C 83 % 11 % 1025 hPa 0,0 l/m 0,0 km/h (0 Bft) 0 min 0 min
04.12.2019 08:42 22,0 C -3,8 C -1,9 C 83 % 11 % 1025 hPa 0,0 l/m 0,7 km/h (0 Bft) 0 min 0 min
04.12.2019 08:45 22,0 C -3,5 C -1,8 C 83 % 11 % 1025 hPa 0,0 l/m 0,7 km/h (0 Bft) 0 min 0 min
04.12.2019 08:48 22,0 C -3,0 C -1,3 C 83 % 11 % 1025 hPa 0,0 l/m 0,0 km/h (0 Bft) 0 min 0 min
04.12.2019 08:51 22,0 C -2,6 C -1,3 C 83 % 12 % 1025 hPa 0,0 l/m 0,0 km/h (0 Bft) 0 min 0 min
04.12.2019 08:54 22,0 C -2,6 C -1,1 C 83 % 12 % 1025 hPa 0,0 l/m 0,4 km/h (0 Bft) 0 min 0 min
04.12.2019 08:57 22,0 C -1,7 C -1,0 C 82 % 12 % 1025 hPa 0,0 l/m 0,1 km/h (0 Bft) 0 min 0 min
04.12.2019 09:00 22,0 C -2,1 C -0,9 C 82 % 13 % 1025 hPa 0,0 l/m 0,0 km/h (0 Bft) 0 min 0 min
04.12.2019 09:03 22,0 C -2,4 C -0,9 C 82 % 13 % 1025 hPa 0,0 l/m 0,1 km/h (0 Bft) 0 min 0 min
04.12.2019 09:06 22,0 C -2,4 C -1,0 C 82 % 13 % 1025 hPa 0,0 l/m 0,0 km/h (0 Bft) 0 min 0 min
04.12.2019 09:09 22,0 C -2,6 C -1,1 C 83 % 13 % 1025 hPa 0,0 l/m 0,0 km/h (0 Bft) 0 min 0 min
04.12.2019 09:12 22,0 C -2,6 C -1,1 C 83 % 14 % 1025 hPa 0,0 l/m 0,0 km/h (0 Bft) 0 min 0 min
04.12.2019 09:15 22,0 C -2,6 C -0,7 C 83 % 14 % 1025 hPa 0,0 l/m 0,0 km/h (0 Bft) 0 min 0 min
04.12.2019 09:18 22,0 C -2,5 C -0,6 C 83 % 14 % 1025 hPa 0,0 l/m 0,0 km/h (0 Bft) 0 min 0 min
04.12.2019 09:21 22,0 C -2,4 C -0,6 C 83 % 14 % 1025 hPa 0,0 l/m 0,0 km/h (0 Bft) 0 min 0 min
04.12.2019 09:24 22,0 C -2,3 C -1,1 C 83 % 14 % 1025 hPa 0,0 l/m 0,0 km/h (0 Bft) 0 min 0 min
04.12.2019 09:27 22,0 C -2,2 C -0,7 C 83 % 14 % 1025 hPa 0,0 l/m 0,0 km/h (0 Bft) 0 min 0 min
04.12.2019 09:30 22,0 C -2,1 C -0,7 C 83 % 15 % 1025 hPa 0,0 l/m 0,1 km/h (0 Bft) 0 min 0 min
04.12.2019 09:33 22,0 C -2,0 C -1,2 C 83 % 15 % 1025 hPa 0,0 l/m 0,1 km/h (0 Bft) 0 min 0 min
04.12.2019 09:36 22,0 C -1,9 C -1,2 C 83 % 15 % 1025 hPa 0,0 l/m 1,3 km/h (1 Bft) 0 min 0 min
04.12.2019 09:39 22,0 C -1,8 C -1,2 C 83 % 15 % 1025 hPa 0,0 l/m 2,4 km/h (1 Bft) 0 min 0 min
04.12.2019 09:42 22,0 C -1,7 C -1,1 C 82 % 15 % 1025 hPa 0,0 l/m 2,4 km/h (1 Bft) 0 min 0 min
04.12.2019 09:45 22,0 C -1,6 C -0,9 C 83 % 15 % 1025 hPa 0,0 l/m 1,8 km/h (1 Bft) 0 min 0 min
04.12.2019 09:48 22,0 C -1,5 C -0,7 C 83 % 16 % 1025 hPa 0,0 l/m 0,3 km/h (0 Bft) 0 min 0 min
04.12.2019 09:51 22,0 C -1,4 C -0,8 C 82 % 17 % 1024 hPa 0,0 l/m 0,0 km/h (0 Bft) 0 min 0 min
04.12.2019 09:54 22,0 C -1,3 C -0,8 C 82 % 17 % 1025 hPa 0,0 l/m 0,0 km/h (0 Bft) 0 min 0 min
04.12.2019 09:57 22,0 C -1,2 C -0,6 C 82 % 18 % 1025 hPa 0,0 l/m 0,0 km/h (0 Bft) 0 min 0 min
04.12.2019 10:00 22,0 C -1,1 C -0,8 C 82 % 18 % 1025 hPa 0,0 l/m 0,0 km/h (0 Bft) 0 min 0 min
04.12.2019 10:03 22,0 C -1,0 C -0,8 C 82 % 17 % 1025 hPa 0,0 l/m 0,0 km/h (0 Bft) 0 min 0 min
04.12.2019 10:06 22,0 C -0,9 C -0,7 C 82 % 18 % 1025 hPa 0,0 l/m 0,1 km/h (0 Bft) 0 min 0 min
04.12.2019 10:09 22,0 C -0,7 C -0,4 C 82 % 22 % 1025 hPa 0,0 l/m 3,1 km/h (1 Bft) 0 min 0 min
04.12.2019 10:12 22,0 C -0,6 C -0,6 C 82 % 44 % 1025 hPa 0,0 l/m 3,0 km/h (1 Bft) 3 min 0 min
04.12.2019 10:15 22,0 C -0,5 C -0,6 C 82 % 65 % 1025 hPa 0,0 l/m 3,6 km/h (1 Bft) 3 min 0 min
04.12.2019 10:18 22,1 C -0,3 C -0,5 C 82 % 78 % 1025 hPa 0,0 l/m 4,1 km/h (1 Bft) 3 min 0 min
04.12.2019 10:21 22,0 C -0,3 C -0,6 C 81 % 82 % 1025 hPa 0,0 l/m 2,5 km/h (1 Bft) 3 min 0 min
04.12.2019 10:24 22,0 C -0,3 C -0,2 C 81 % 84 % 1025 hPa 0,0 l/m 2,1 km/h (1 Bft) 3 min 0 min
04.12.2019 10:27 22,0 C 0,0 C -0,3 C 81 % 84 % 1025 hPa 0,0 l/m 4,1 km/h (1 Bft) 3 min 0 min
04.12.2019 10:30 22,0 C 0,1 C -0,5 C 80 % 48 % 1025 hPa 0,0 l/m 3,3 km/h (1 Bft) 3 min 0 min
04.12.2019 10:33 22,0 C 0,2 C -0,4 C 80 % 35 % 1024 hPa 0,0 l/m 0,5 km/h (0 Bft) 0 min 0 min
04.12.2019 10:36 22,1 C 0,3 C -0,3 C 80 % 84 % 1024 hPa 0,0 l/m 0,5 km/h (0 Bft) 3 min 0 min
04.12.2019 10:39 22,1 C 0,3 C -0,1 C 80 % 45 % 1024 hPa 0,0 l/m 0,1 km/h (0 Bft) 0 min 0 min
04.12.2019 10:42 22,1 C 0,5 C 0,2 C 80 % 31 % 1024 hPa 0,0 l/m 0,1 km/h (0 Bft) 0 min 0 min
04.12.2019 10:45 22,1 C 0,8 C 0,4 C 80 % 49 % 1024 hPa 0,0 l/m 0,0 km/h (0 Bft) 0 min 0 min
04.12.2019 10:48 22,1 C 0,9 C 0,4 C 80 % 82 % 1024 hPa 0,0 l/m 0,0 km/h (0 Bft) 3 min 0 min
04.12.2019 10:51 22,1 C 0,9 C 0,5 C 80 % 83 % 1024 hPa 0,0 l/m 0,0 km/h (0 Bft) 3 min 0 min
04.12.2019 10:54 22,1 C 1,2 C 0,0 C 80 % 83 % 1024 hPa 0,0 l/m 0,1 km/h (0 Bft) 3 min 0 min
04.12.2019 10:57 22,1 C 1,2 C 0,2 C 79 % 83 % 1024 hPa 0,0 l/m 0,0 km/h (0 Bft) 3 min 0 min
04.12.2019 11:00 22,0 C 1,3 C 0,0 C 79 % 83 % 1024 hPa 0,0 l/m 1,8 km/h (1 Bft) 3 min 0 min
04.12.2019 11:03 22,0 C 1,3 C -0,2 C 79 % 83 % 1024 hPa 0,0 l/m 0,9 km/h (0 Bft) 3 min 0 min
04.12.2019 11:06 22,0 C 1,3 C -0,2 C 77 % 83 % 1024 hPa 0,0 l/m 0,0 km/h (0 Bft) 3 min 0 min
04.12.2019 11:09 21,6 C 1,3 C 0,1 C 77 % 83 % 1024 hPa 0,0 l/m 3,1 km/h (1 Bft) 3 min 0 min
04.12.2019 11:12 21,1 C 1,7 C 0,6 C 78 % 83 % 1024 hPa 0,0 l/m 0,3 km/h (0 Bft) 3 min 0 min
04.12.2019 11:15 20,7 C 1,7 C 0,6 C 78 % 83 % 1024 hPa 0,0 l/m 0,1 km/h (0 Bft) 3 min 0 min
04.12.2019 11:18 20,7 C 2,3 C 0,7 C 78 % 83 % 1024 hPa 0,0 l/m 2,1 km/h (1 Bft) 3 min 0 min
04.12.2019 11:21 20,6 C 2,5 C 0,2 C 77 % 83 % 1024 hPa 0,0 l/m 1,8 km/h (1 Bft) 3 min 0 min
04.12.2019 11:24 20,6 C 2,4 C 0,1 C 75 % 83 % 1024 hPa 0,0 l/m 0,2 km/h (0 Bft) 3 min 0 min
04.12.2019 11:27 21,0 C 2,3 C 0,1 C 76 % 32 % 1024 hPa 0,0 l/m 0,0 km/h (0 Bft) 0 min 0 min
04.12.2019 11:30 21,0 C 2,5 C 0,3 C 76 % 74 % 1024 hPa 0,0 l/m 2,5 km/h (1 Bft) 3 min 0 min
04.12.2019 11:33 21,2 C 2,7 C 0,2 C 75 % 24 % 1024 hPa 0,0 l/m 1,8 km/h (1 Bft) 0 min 0 min
04.12.2019 11:36 21,3 C 2,7 C 0,2 C 75 % 84 % 1024 hPa 0,0 l/m 6,6 km/h (2 Bft) 3 min 0 min
04.12.2019 11:39 21,3 C 2,3 C 0,1 C 74 % 50 % 1024 hPa 0,0 l/m 2,4 km/h (1 Bft) 0 min 0 min
04.12.2019 11:42 21,4 C 2,4 C 0,2 C 74 % 21 % 1024 hPa 0,0 l/m 5,0 km/h (1 Bft) 0 min 0 min
04.12.2019 11:45 21,4 C 2,5 C 0,2 C 74 % 29 % 1024 hPa 0,0 l/m 5,1 km/h (1 Bft) 0 min 0 min
04.12.2019 11:48 21,5 C 2,8 C 0,4 C 74 % 22 % 1024 hPa 0,0 l/m 4,3 km/h (1 Bft) 0 min 0 min
04.12.2019 11:51 21,5 C 3,1 C 0,6 C 74 % 22 % 1024 hPa 0,0 l/m 6,1 km/h (2 Bft) 0 min 0 min
04.12.2019 11:54 21,6 C 3,3 C 0,5 C 74 % 22 % 1024 hPa 0,0 l/m 6,2 km/h (2 Bft) 0 min 0 min
04.12.2019 11:57 21,6 C 3,5 C 0,8 C 74 % 83 % 1024 hPa 0,0 l/m 3,4 km/h (1 Bft) 3 min 0 min
04.12.2019 12:00 21,6 C 3,5 C 0,5 C 72 % 84 % 1024 hPa 0,0 l/m 5,9 km/h (2 Bft) 3 min 0 min
04.12.2019 12:03 21,6 C 3,4 C 0,5 C 72 % 84 % 1023 hPa 0,0 l/m 6,7 km/h (2 Bft) 3 min 0 min
04.12.2019 12:06 21,6 C 3,4 C 0,4 C 72 % 84 % 1023 hPa 0,0 l/m 6,5 km/h (2 Bft) 3 min 0 min
04.12.2019 12:09 21,7 C 3,1 C 0,5 C 72 % 83 % 1023 hPa 0,0 l/m 5,6 km/h (1 Bft) 3 min 0 min
04.12.2019 12:12 21,7 C 3,1 C 0,5 C 73 % 29 % 1023 hPa 0,0 l/m 1,9 km/h (1 Bft) 0 min 0 min
04.12.2019 12:15 21,7 C 3,4 C 0,8 C 73 % 84 % 1023 hPa 0,0 l/m 3,1 km/h (1 Bft) 3 min 0 min
04.12.2019 12:18 21,8 C 3,7 C 0,6 C 72 % 84 % 1023 hPa 0,0 l/m 1,6 km/h (1 Bft) 3 min 0 min
04.12.2019 12:21 21,8 C 3,6 C 0,6 C 72 % 83 % 1023 hPa 0,0 l/m 5,4 km/h (1 Bft) 3 min 0 min
04.12.2019 12:24 21,8 C 3,5 C 0,7 C 72 % 83 % 1023 hPa 0,0 l/m 5,0 km/h (1 Bft) 3 min 0 min
04.12.2019 12:27 21,8 C 3,5 C 0,7 C 72 % 83 % 1023 hPa 0,0 l/m 4,4 km/h (1 Bft) 3 min 0 min
04.12.2019 12:30 21,8 C 3,6 C 0,8 C 72 % 83 % 1023 hPa 0,0 l/m 5,4 km/h (1 Bft) 3 min 0 min
04.12.2019 12:33 21,8 C 3,5 C 0,8 C 72 % 83 % 1023 hPa 0,0 l/m 5,9 km/h (2 Bft) 3 min 0 min
04.12.2019 12:36 21,9 C 3,4 C 0,8 C 71 % 83 % 1023 hPa 0,0 l/m 5,2 km/h (1 Bft) 3 min 0 min
04.12.2019 12:39 21,9 C 3,6 C 0,8 C 72 % 83 % 1023 hPa 0,0 l/m 3,4 km/h (1 Bft) 3 min 0 min
04.12.2019 12:42 21,9 C 3,9 C 0,8 C 72 % 83 % 1023 hPa 0,0 l/m 4,6 km/h (1 Bft) 3 min 0 min
04.12.2019 12:45 22,0 C 3,9 C 1,2 C 72 % 83 % 1023 hPa 0,0 l/m 0,7 km/h (0 Bft) 3 min 0 min
04.12.2019 12:48 22,0 C 4,4 C 1,2 C 71 % 83 % 1023 hPa 0,0 l/m 3,7 km/h (1 Bft) 3 min 0 min
04.12.2019 12:51 22,0 C 4,5 C 0,9 C 71 % 83 % 1023 hPa 0,0 l/m 0,5 km/h (0 Bft) 3 min 0 min
04.12.2019 12:54 22,0 C 4,6 C 1,2 C 71 % 83 % 1023 hPa 0,0 l/m 4,8 km/h (1 Bft) 3 min 0 min
04.12.2019 12:57 22,0 C 4,5 C 0,8 C 70 % 83 % 1023 hPa 0,0 l/m 4,8 km/h (1 Bft) 3 min 0 min
04.12.2019 13:00 22,0 C 4,5 C 1,0 C 70 % 83 % 1023 hPa 0,0 l/m 4,8 km/h (1 Bft) 3 min 0 min
04.12.2019 13:03 22,0 C 4,5 C 1,2 C 71 % 83 % 1023 hPa 0,0 l/m 0,6 km/h (0 Bft) 3 min 0 min
04.12.2019 13:06 22,0 C 4,4 C 1,2 C 71 % 83 % 1023 hPa 0,0 l/m 0,6 km/h (0 Bft) 3 min 0 min
04.12.2019 13:09 22,0 C 4,3 C 1,1 C 70 % 83 % 1023 hPa 0,0 l/m 5,0 km/h (1 Bft) 3 min 0 min
04.12.2019 13:12 22,0 C 4,3 C 1,3 C 70 % 83 % 1023 hPa 0,0 l/m 0,5 km/h (0 Bft) 3 min 0 min
04.12.2019 13:15 22,0 C 4,3 C 1,1 C 70 % 83 % 1023 hPa 0,0 l/m 3,7 km/h (1 Bft) 3 min 0 min
04.12.2019 13:18 22,1 C 4,3 C 1,1 C 70 % 83 % 1022 hPa 0,0 l/m 1,1 km/h (1 Bft) 3 min 0 min
04.12.2019 13:21 22,1 C 4,4 C 1,8 C 70 % 83 % 1022 hPa 0,0 l/m 1,4 km/h (1 Bft) 3 min 0 min
04.12.2019 13:24 22,2 C 4,5 C 1,8 C 70 % 83 % 1022 hPa 0,0 l/m 1,4 km/h (1 Bft) 3 min 0 min
04.12.2019 13:27 22,2 C 4,6 C 1,9 C 70 % 83 % 1022 hPa 0,0 l/m 1,4 km/h (1 Bft) 3 min 0 min
04.12.2019 13:30 22,2 C 4,7 C 2,1 C 70 % 83 % 1022 hPa 0,0 l/m 1,0 km/h (0 Bft) 3 min 0 min
04.12.2019 13:33 22,2 C 4,8 C 1,9 C 69 % 83 % 1022 hPa 0,0 l/m 9,5 km/h (2 Bft) 3 min 0 min
04.12.2019 13:36 22,2 C 4,8 C 2,5 C 67 % 83 % 1022 hPa 0,0 l/m 10,0 km/h (2 Bft) 3 min 0 min
04.12.2019 13:39 22,2 C 4,8 C 2,6 C 67 % 83 % 1022 hPa 0,0 l/m 7,7 km/h (2 Bft) 3 min 0 min
04.12.2019 13:42 22,3 C 4,9 C 2,2 C 67 % 83 % 1022 hPa 0,0 l/m 9,2 km/h (2 Bft) 3 min 0 min
04.12.2019 13:45 22,3 C 4,8 C 2,1 C 67 % 83 % 1022 hPa 0,0 l/m 10,0 km/h (2 Bft) 3 min 0 min
04.12.2019 13:48 22,3 C 4,6 C 2,3 C 67 % 83 % 1022 hPa 0,0 l/m 14,0 km/h (3 Bft) 3 min 0 min
04.12.2019 13:51 22,3 C 4,4 C 2,0 C 66 % 48 % 1022 hPa 0,0 l/m 11,5 km/h (2 Bft) 0 min 0 min
04.12.2019 13:54 22,3 C 4,3 C 2,0 C 66 % 17 % 1022 hPa 0,0 l/m 12,3 km/h (3 Bft) 0 min 0 min
04.12.2019 13:57 22,3 C 4,3 C 2,0 C 68 % 17 % 1022 hPa 0,0 l/m 7,2 km/h (2 Bft) 0 min 0 min
04.12.2019 14:00 22,4 C 4,4 C 1,9 C 68 % 17 % 1022 hPa 0,0 l/m 7,9 km/h (2 Bft) 0 min 0 min
04.12.2019 14:03 22,4 C 4,5 C 1,9 C 68 % 17 % 1022 hPa 0,0 l/m 6,3 km/h (2 Bft) 0 min 0 min
04.12.2019 14:06 22,4 C 4,6 C 2,0 C 67 % 16 % 1022 hPa 0,0 l/m 4,9 km/h (1 Bft) 0 min 0 min
04.12.2019 14:09 22,4 C 4,6 C 1,9 C 67 % 16 % 1022 hPa 0,0 l/m 8,0 km/h (2 Bft) 0 min 0 min
04.12.2019 14:12 22,4 C 4,5 C 1,9 C 67 % 16 % 1022 hPa 0,0 l/m 8,0 km/h (2 Bft) 0 min 0 min
04.12.2019 14:15 22,4 C 4,3 C 1,8 C 67 % 16 % 1022 hPa 0,0 l/m 11,0 km/h (2 Bft) 0 min 0 min
04.12.2019 14:18 22,4 C 4,1 C 2,0 C 68 % 16 % 1022 hPa 0,0 l/m 13,1 km/h (3 Bft) 0 min 0 min
04.12.2019 14:21 22,4 C 4,2 C 1,8 C 68 % 15 % 1022 hPa 0,0 l/m 12,1 km/h (2 Bft) 0 min 0 min
04.12.2019 14:24 22,5 C 4,2 C 1,8 C 68 % 15 % 1022 hPa 0,0 l/m 7,9 km/h (2 Bft) 0 min 0 min
04.12.2019 14:27 22,4 C 4,1 C 1,7 C 68 % 15 % 1022 hPa 0,0 l/m 10,7 km/h (2 Bft) 0 min 0 min
04.12.2019 14:30 22,5 C 4,0 C 1,7 C 69 % 15 % 1022 hPa 0,0 l/m 10,1 km/h (2 Bft) 0 min 0 min
04.12.2019 14:33 22,5 C 3,9 C 1,7 C 69 % 15 % 1022 hPa 0,0 l/m 8,1 km/h (2 Bft) 0 min 0 min
04.12.2019 14:36 22,5 C 3,9 C 1,6 C 70 % 14 % 1022 hPa 0,0 l/m 2,6 km/h (1 Bft) 0 min 0 min
04.12.2019 14:39 22,5 C 3,8 C 1,8 C 70 % 14 % 1022 hPa 0,0 l/m 5,1 km/h (1 Bft) 0 min 0 min
04.12.2019 14:42 22,5 C 3,7 C 1,6 C 70 % 14 % 1022 hPa 0,0 l/m 4,5 km/h (1 Bft) 0 min 0 min
04.12.2019 14:45 22,5 C 3,6 C 1,7 C 70 % 14 % 1022 hPa 0,0 l/m 8,3 km/h (2 Bft) 0 min 0 min
04.12.2019 14:48 22,5 C 3,5 C 1,7 C 71 % 14 % 1022 hPa 0,0 l/m 8,3 km/h (2 Bft) 0 min 0 min
04.12.2019 14:51 22,6 C 3,4 C 1,6 C 71 % 13 % 1022 hPa 0,0 l/m 5,0 km/h (1 Bft) 0 min 0 min
04.12.2019 14:54 22,6 C 3,4 C 1,6 C 71 % 13 % 1022 hPa 0,0 l/m 4,6 km/h (1 Bft) 0 min 0 min
04.12.2019 14:57 22,6 C 3,3 C 1,7 C 72 % 12 % 1022 hPa 0,0 l/m 3,1 km/h (1 Bft) 0 min 0 min
04.12.2019 15:00 22,5 C 3,2 C 1,6 C 72 % 12 % 1022 hPa 0,0 l/m 6,3 km/h (2 Bft) 0 min 0 min
04.12.2019 15:03 22,6 C 3,1 C 1,7 C 73 % 12 % 1022 hPa 0,0 l/m 6,3 km/h (2 Bft) 0 min 0 min
04.12.2019 15:06 22,6 C 3,1 C 1,6 C 73 % 11 % 1022 hPa 0,0 l/m 5,9 km/h (2 Bft) 0 min 0 min
04.12.2019 15:09 22,6 C 3,1 C 1,6 C 73 % 11 % 1022 hPa 0,0 l/m 5,9 km/h (2 Bft) 0 min 0 min
04.12.2019 15:12 22,6 C 3,0 C 1,7 C 73 % 11 % 1022 hPa 0,0 l/m 5,6 km/h (1 Bft) 0 min 0 min
04.12.2019 15:15 22,6 C 3,0 C 1,7 C 73 % 10 % 1022 hPa 0,0 l/m 6,4 km/h (2 Bft) 0 min 0 min
04.12.2019 15:18 22,6 C 3,0 C 1,7 C 73 % 10 % 1022 hPa 0,0 l/m 4,3 km/h (1 Bft) 0 min 0 min
04.12.2019 15:21 22,6 C 2,9 C 1,6 C 73 % 10 % 1022 hPa 0,0 l/m 4,5 km/h (1 Bft) 0 min 0 min
04.12.2019 15:24 22,6 C 2,9 C 1,6 C 73 % 9 % 1022 hPa 0,0 l/m 4,5 km/h (1 Bft) 0 min 0 min
04.12.2019 15:27 22,6 C 2,8 C 1,6 C 73 % 9 % 1022 hPa 0,0 l/m 3,4 km/h (1 Bft) 0 min 0 min
04.12.2019 15:30 22,6 C 2,8 C 1,5 C 73 % 9 % 1022 hPa 0,0 l/m 6,7 km/h (2 Bft) 0 min 0 min
04.12.2019 15:33 22,6 C 2,7 C 1,6 C 73 % 8 % 1022 hPa 0,0 l/m 4,5 km/h (1 Bft) 0 min 0 min
04.12.2019 15:36 22,6 C 2,7 C 1,5 C 74 % 8 % 1022 hPa 0,0 l/m 1,5 km/h (1 Bft) 0 min 0 min
04.12.2019 15:39 22,6 C 2,5 C 1,5 C 74 % 8 % 1022 hPa 0,0 l/m 1,9 km/h (1 Bft) 0 min 0 min
04.12.2019 15:42 22,6 C 2,4 C 1,4 C 74 % 7 % 1022 hPa 0,0 l/m 0,4 km/h (0 Bft) 0 min 0 min
04.12.2019 15:45 22,6 C 2,3 C 1,4 C 74 % 6 % 1022 hPa 0,0 l/m 0,4 km/h (0 Bft) 0 min 0 min
04.12.2019 15:48 22,6 C 2,2 C 1,4 C 75 % 6 % 1022 hPa 0,0 l/m 5,5 km/h (1 Bft) 0 min 0 min
04.12.2019 15:51 22,6 C 2,3 C 1,5 C 75 % 6 % 1022 hPa 0,0 l/m 6,3 km/h (2 Bft) 3 min 0 min
04.12.2019 15:54 22,6 C 2,3 C 1,5 C 75 % 5 % 1022 hPa 0,0 l/m 5,4 km/h (1 Bft) 3 min 0 min
04.12.2019 15:57 22,6 C 2,2 C 1,4 C 75 % 4 % 1022 hPa 0,0 l/m 1,5 km/h (1 Bft) 3 min 0 min
04.12.2019 16:00 22,6 C 2,1 C 1,4 C 75 % 4 % 1022 hPa 0,0 l/m 5,0 km/h (1 Bft) 3 min 0 min
04.12.2019 16:03 22,6 C 2,0 C 1,4 C 75 % 3 % 1022 hPa 0,0 l/m 3,4 km/h (1 Bft) 0 min 0 min
04.12.2019 16:06 22,6 C 2,0 C 1,4 C 75 % 3 % 1022 hPa 0,0 l/m 7,2 km/h (2 Bft) 0 min 0 min
04.12.2019 16:09 22,5 C 1,9 C 1,4 C 76 % 2 % 1022 hPa 0,0 l/m 4,6 km/h (1 Bft) 0 min 0 min
04.12.2019 16:12 22,6 C 1,9 C 1,4 C 76 % 2 % 1022 hPa 0,0 l/m 4,0 km/h (1 Bft) 0 min 0 min
04.12.2019 16:15 22,5 C 1,9 C 1,4 C 76 % 2 % 1022 hPa 0,0 l/m 4,0 km/h (1 Bft) 0 min 0 min
04.12.2019 16:18 22,6 C 1,7 C 1,4 C 76 % 1 % 1022 hPa 0,0 l/m 8,1 km/h (2 Bft) 0 min 0 min
04.12.2019 16:21 22,5 C 1,7 C 1,4 C 76 % 1 % 1022 hPa 0,0 l/m 6,7 km/h (2 Bft) 0 min 0 min
04.12.2019 16:24 22,5 C 1,7 C 1,4 C 76 % 1 % 1022 hPa 0,0 l/m 2,5 km/h (1 Bft) 0 min 0 min
04.12.2019 16:27 22,6 C 1,5 C 1,4 C 76 % 0 % 1022 hPa 0,0 l/m 4,3 km/h (1 Bft) 0 min 0 min
04.12.2019 16:30 22,6 C 1,5 C 1,4 C 76 % 0 % 1022 hPa 0,0 l/m 1,0 km/h (0 Bft) 0 min 0 min
04.12.2019 16:33 22,5 C 1,5 C 1,4 C 76 % 0 % 1022 hPa 0,0 l/m 2,7 km/h (1 Bft) 0 min 0 min
04.12.2019 16:36 22,6 C 1,4 C 1,3 C 77 % 0 % 1022 hPa 0,0 l/m 1,0 km/h (0 Bft) 0 min 0 min
04.12.2019 16:39 22,6 C 1,4 C 1,3 C 77 % 0 % 1022 hPa 0,0 l/m 1,0 km/h (0 Bft) 0 min 0 min
04.12.2019 16:42 22,6 C 1,5 C 1,4 C 77 % 0 % 1022 hPa 0,0 l/m 8,4 km/h (2 Bft) 0 min 0 min
04.12.2019 16:45 22,6 C 1,5 C 1,4 C 77 % 0 % 1022 hPa 0,0 l/m 6,1 km/h (2 Bft) 0 min 0 min
04.12.2019 16:48 22,5 C 1,6 C 1,4 C 77 % 0 % 1022 hPa 0,0 l/m 6,3 km/h (2 Bft) 0 min 0 min
04.12.2019 16:51 22,5 C 1,6 C 1,4 C 76 % 0 % 1022 hPa 0,0 l/m 8,1 km/h (2 Bft) 0 min 0 min
04.12.2019 16:54 22,5 C 1,6 C 1,3 C 76 % 0 % 1022 hPa 0,0 l/m 7,1 km/h (2 Bft) 0 min 0 min
04.12.2019 16:57 22,6 C 1,5 C 1,3 C 76 % 0 % 1022 hPa 0,0 l/m 6,7 km/h (2 Bft) 0 min 0 min
04.12.2019 17:00 22,5 C 1,5 C 1,2 C 76 % 0 % 1022 hPa 0,0 l/m 5,4 km/h (1 Bft) 0 min 0 min
04.12.2019 17:03 22,5 C 1,5 C 1,2 C 76 % 0 % 1022 hPa 0,0 l/m 4,9 km/h (1 Bft) 0 min 0 min
04.12.2019 17:06 22,5 C 1,3 C 1,2 C 76 % 0 % 1022 hPa 0,0 l/m 4,9 km/h (1 Bft) 0 min 0 min
04.12.2019 17:09 22,5 C 1,2 C 1,2 C 76 % 0 % 1022 hPa 0,0 l/m 3,6 km/h (1 Bft) 0 min 0 min
04.12.2019 17:12 22,5 C 1,2 C 1,1 C 76 % 0 % 1022 hPa 0,0 l/m 5,0 km/h (1 Bft) 0 min 0 min
04.12.2019 17:15 22,5 C 1,2 C 1,2 C 76 % 0 % 1022 hPa 0,0 l/m 4,0 km/h (1 Bft) 0 min 0 min
04.12.2019 17:18 22,5 C 1,1 C 1,2 C 76 % 0 % 1022 hPa 0,0 l/m 7,9 km/h (2 Bft) 0 min 0 min
04.12.2019 17:21 22,5 C 1,1 C 1,0 C 76 % 0 % 1022 hPa 0,0 l/m 4,3 km/h (1 Bft) 0 min 0 min
04.12.2019 17:24 22,5 C 1,0 C 1,0 C 77 % 0 % 1022 hPa 0,0 l/m 4,2 km/h (1 Bft) 0 min 0 min
04.12.2019 17:27 22,5 C 0,9 C 1,0 C 77 % 0 % 1022 hPa 0,0 l/m 2,4 km/h (1 Bft) 0 min 0 min
04.12.2019 17:30 22,5 C 0,9 C 1,0 C 77 % 0 % 1022 hPa 0,0 l/m 1,9 km/h (1 Bft) 0 min 0 min
04.12.2019 17:33 22,5 C 0,8 C 0,8 C 77 % 0 % 1022 hPa 0,0 l/m 0,4 km/h (0 Bft) 0 min 0 min
04.12.2019 17:36 22,5 C 0,8 C 1,0 C 77 % 0 % 1022 hPa 0,0 l/m 0,0 km/h (0 Bft) 0 min 0 min
04.12.2019 17:39 22,5 C 0,7 C 1,1 C 77 % 0 % 1022 hPa 0,0 l/m 0,3 km/h (0 Bft) 0 min 0 min
04.12.2019 17:42 22,5 C 0,7 C 0,9 C 77 % 0 % 1022 hPa 0,0 l/m 5,7 km/h (1 Bft) 0 min 0 min
04.12.2019 17:45 22,5 C 0,7 C 0,9 C 77 % 0 % 1022 hPa 0,0 l/m 3,6 km/h (1 Bft) 0 min 0 min
04.12.2019 17:48 22,5 C 0,7 C 1,0 C 77 % 0 % 1022 hPa 0,0 l/m 1,3 km/h (1 Bft) 0 min 0 min
04.12.2019 17:51 22,5 C 0,6 C 0,9 C 77 % 0 % 1022 hPa 0,0 l/m 1,1 km/h (1 Bft) 0 min 0 min
04.12.2019 17:54 22,5 C 0,5 C 0,8 C 77 % 0 % 1022 hPa 0,0 l/m 0,6 km/h (0 Bft) 0 min 0 min
04.12.2019 17:57 22,5 C 0,5 C 0,9 C 77 % 0 % 1022 hPa 0,0 l/m 4,2 km/h (1 Bft) 0 min 0 min
04.12.2019 18:00 22,5 C 0,4 C 0,7 C 77 % 0 % 1022 hPa 0,0 l/m 2,5 km/h (1 Bft) 0 min 0 min
04.12.2019 18:03 22,5 C 0,4 C 0,7 C 77 % 0 % 1022 hPa 0,0 l/m 5,8 km/h (2 Bft) 0 min 0 min
04.12.2019 18:06 22,5 C 0,5 C 0,8 C 78 % 0 % 1022 hPa 0,0 l/m 6,7 km/h (2 Bft) 0 min 0 min
04.12.2019 18:09 22,5 C 0,5 C 0,8 C 77 % 0 % 1022 hPa 0,0 l/m 5,0 km/h (1 Bft) 0 min 0 min
04.12.2019 18:12 22,5 C 0,5 C 0,8 C 77 % 0 % 1022 hPa 0,0 l/m 6,1 km/h (2 Bft) 0 min 0 min
04.12.2019 18:15 22,5 C 0,4 C 0,9 C 77 % 0 % 1022 hPa 0,0 l/m 0,8 km/h (0 Bft) 0 min 0 min
04.12.2019 18:18 22,5 C 0,3 C 0,8 C 77 % 0 % 1022 hPa 0,0 l/m 0,2 km/h (0 Bft) 0 min 0 min
04.12.2019 18:21 22,5 C 0,3 C 0,8 C 78 % 0 % 1022 hPa 0,0 l/m 6,3 km/h (2 Bft) 0 min 0 min
04.12.2019 18:24 22,5 C 0,3 C 0,7 C 78 % 0 % 1022 hPa 0,0 l/m 7,9 km/h (2 Bft) 0 min 0 min
04.12.2019 18:27 22,5 C 0,3 C 0,8 C 78 % 0 % 1022 hPa 0,0 l/m 5,7 km/h (1 Bft) 0 min 0 min
04.12.2019 18:30 22,6 C 0,3 C 0,8 C 78 % 0 % 1022 hPa 0,0 l/m 4,6 km/h (1 Bft) 0 min 0 min
04.12.2019 18:33 22,6 C 0,3 C 0,8 C 78 % 0 % 1022 hPa 0,0 l/m 2,6 km/h (1 Bft) 0 min 0 min
04.12.2019 18:36 22,6 C 0,3 C 0,8 C 78 % 0 % 1022 hPa 0,0 l/m 2,6 km/h (1 Bft) 0 min 0 min
04.12.2019 18:39 22,6 C 0,2 C 0,6 C 78 % 0 % 1022 hPa 0,0 l/m 3,9 km/h (1 Bft) 0 min 0 min
04.12.2019 18:42 22,6 C 0,3 C 0,7 C 78 % 1 % 1022 hPa 0,0 l/m 5,2 km/h (1 Bft) 0 min 0 min
04.12.2019 18:45 22,6 C 0,3 C 0,8 C 78 % 0 % 1022 hPa 0,0 l/m 2,4 km/h (1 Bft) 0 min 0 min
04.12.2019 18:48 22,6 C 0,3 C 0,7 C 78 % 1 % 1022 hPa 0,0 l/m 2,4 km/h (1 Bft) 0 min 0 min
04.12.2019 18:51 22,6 C 0,3 C 0,8 C 78 % 1 % 1022 hPa 0,0 l/m 0,4 km/h (0 Bft) 0 min 0 min
04.12.2019 18:54 22,6 C 0,3 C 0,7 C 78 % 1 % 1022 hPa 0,0 l/m 1,0 km/h (0 Bft) 0 min 0 min
04.12.2019 18:57 22,6 C 0,2 C 0,7 C 78 % 1 % 1022 hPa 0,0 l/m 2,4 km/h (1 Bft) 0 min 0 min
04.12.2019 19:00 22,6 C 0,1 C 0,7 C 78 % 1 % 1022 hPa 0,0 l/m 2,4 km/h (1 Bft) 0 min 0 min
04.12.2019 19:03 22,6 C 0,0 C 0,7 C 78 % 1 % 1022 hPa 0,0 l/m 1,4 km/h (1 Bft) 0 min 0 min
04.12.2019 19:06 22,6 C -0,2 C 0,7 C 78 % 1 % 1022 hPa 0,0 l/m 0,0 km/h (0 Bft) 0 min 0 min
04.12.2019 19:09 22,6 C -0,2 C 0,6 C 78 % 1 % 1022 hPa 0,0 l/m 4,0 km/h (1 Bft) 0 min 0 min
04.12.2019 19:12 22,6 C -0,2 C 0,7 C 78 % 1 % 1022 hPa 0,0 l/m 1,5 km/h (1 Bft) 0 min 0 min
04.12.2019 19:15 22,6 C -0,3 C 0,7 C 78 % 1 % 1022 hPa 0,0 l/m 4,5 km/h (1 Bft) 0 min 0 min
04.12.2019 19:18 22,6 C -0,3 C 0,5 C 79 % 1 % 1022 hPa 0,0 l/m 4,1 km/h (1 Bft) 0 min 0 min
04.12.2019 19:21 22,6 C -0,2 C 0,5 C 79 % 1 % 1022 hPa 0,0 l/m 1,6 km/h (1 Bft) 0 min 0 min
04.12.2019 19:24 22,6 C -0,2 C 0,5 C 79 % 1 % 1022 hPa 0,0 l/m 2,2 km/h (1 Bft) 0 min 0 min
04.12.2019 19:27 22,6 C -0,2 C 0,5 C 79 % 1 % 1022 hPa 0,0 l/m 1,5 km/h (1 Bft) 0 min 0 min
04.12.2019 19:30 22,6 C -0,2 C 0,5 C 79 % 1 % 1022 hPa 0,0 l/m 3,5 km/h (1 Bft) 0 min 0 min
04.12.2019 19:33 22,6 C -0,2 C 0,4 C 79 % 1 % 1022 hPa 0,0 l/m 6,6 km/h (2 Bft) 0 min 0 min
04.12.2019 19:36 22,6 C -0,3 C 0,5 C 79 % 1 % 1022 hPa 0,0 l/m 6,6 km/h (2 Bft) 0 min 0 min
04.12.2019 19:39 22,6 C -0,3 C 0,5 C 79 % 1 % 1022 hPa 0,0 l/m 6,2 km/h (2 Bft) 0 min 0 min
04.12.2019 19:42 22,6 C -0,3 C 0,6 C 79 % 1 % 1022 hPa 0,0 l/m 3,4 km/h (1 Bft) 0 min 0 min
04.12.2019 19:45 22,6 C -0,4 C 0,5 C 79 % 1 % 1022 hPa 0,0 l/m 3,9 km/h (1 Bft) 0 min 0 min
04.12.2019 19:48 22,6 C -0,3 C 0,5 C 79 % 1 % 1022 hPa 0,0 l/m 4,8 km/h (1 Bft) 0 min 0 min
04.12.2019 19:51 22,6 C -0,4 C 0,5 C 79 % 1 % 1022 hPa 0,0 l/m 4,6 km/h (1 Bft) 0 min 0 min
04.12.2019 19:54 22,6 C -0,4 C 0,5 C 79 % 1 % 1022 hPa 0,0 l/m 5,3 km/h (1 Bft) 0 min 0 min
04.12.2019 19:57 22,6 C -0,4 C 0,4 C 79 % 1 % 1022 hPa 0,0 l/m 4,4 km/h (1 Bft) 0 min 0 min
04.12.2019 20:00 22,6 C -0,4 C 0,4 C 79 % 1 % 1022 hPa 0,0 l/m 6,7 km/h (2 Bft) 0 min 0 min
04.12.2019 20:03 22,6 C -0,4 C 0,3 C 79 % 1 % 1022 hPa 0,0 l/m 3,4 km/h (1 Bft) 0 min 0 min
04.12.2019 20:06 22,6 C -0,4 C 0,3 C 79 % 1 % 1022 hPa 0,0 l/m 3,8 km/h (1 Bft) 0 min 0 min
04.12.2019 20:09 22,6 C -0,4 C 0,5 C 79 % 1 % 1022 hPa 0,0 l/m 1,9 km/h (1 Bft) 0 min 0 min
04.12.2019 20:12 22,6 C -0,5 C 0,4 C 79 % 1 % 1022 hPa 0,0 l/m 2,5 km/h (1 Bft) 0 min 0 min
04.12.2019 20:15 22,6 C -0,6 C 0,4 C 79 % 1 % 1022 hPa 0,0 l/m 6,8 km/h (2 Bft) 0 min 0 min
04.12.2019 20:18 22,6 C -0,5 C 0,5 C 79 % 1 % 1022 hPa 0,0 l/m 5,3 km/h (1 Bft) 0 min 0 min
04.12.2019 20:21 22,6 C -0,5 C 0,3 C 79 % 1 % 1022 hPa 0,0 l/m 3,9 km/h (1 Bft) 0 min 0 min
04.12.2019 20:24 22,6 C -0,5 C 0,3 C 79 % 1 % 1022 hPa 0,0 l/m 3,3 km/h (1 Bft) 0 min 0 min
04.12.2019 20:27 22,6 C -0,6 C 0,4 C 79 % 1 % 1022 hPa 0,0 l/m 6,1 km/h (2 Bft) 0 min 0 min
04.12.2019 20:30 22,6 C -0,6 C 0,3 C 79 % 1 % 1022 hPa 0,0 l/m 4,2 km/h (1 Bft) 0 min 0 min
04.12.2019 20:33 22,7 C -0,6 C 0,3 C 80 % 1 % 1022 hPa 0,0 l/m 5,6 km/h (1 Bft) 0 min 0 min
04.12.2019 20:36 22,6 C -0,6 C 0,3 C 80 % 1 % 1022 hPa 0,0 l/m 5,9 km/h (2 Bft) 0 min 0 min
04.12.2019 20:39 22,7 C -0,6 C 0,3 C 80 % 1 % 1022 hPa 0,0 l/m 3,6 km/h (1 Bft) 0 min 0 min
04.12.2019 20:42 22,6 C -0,6 C 0,3 C 80 % 1 % 1022 hPa 0,0 l/m 0,3 km/h (0 Bft) 0 min 0 min
04.12.2019 20:45 22,6 C -0,7 C 0,3 C 79 % 1 % 1022 hPa 0,0 l/m 0,3 km/h (0 Bft) 0 min 0 min
04.12.2019 20:48 22,6 C -0,7 C 0,3 C 80 % 1 % 1022 hPa 0,0 l/m 0,3 km/h (0 Bft) 0 min 0 min
04.12.2019 20:51 22,7 C -0,8 C 0,3 C 80 % 1 % 1022 hPa 0,0 l/m 0,7 km/h (0 Bft) 0 min 0 min
04.12.2019 20:54 22,7 C -0,8 C 0,4 C 80 % 1 % 1022 hPa 0,0 l/m 0,0 km/h (0 Bft) 0 min 0 min
04.12.2019 20:57 22,7 C -0,9 C 0,4 C 80 % 1 % 1022 hPa 0,0 l/m 0,0 km/h (0 Bft) 0 min 0 min
04.12.2019 21:00 22,7 C -0,9 C 0,3 C 80 % 1 % 1022 hPa 0,0 l/m 0,4 km/h (0 Bft) 0 min 0 min
04.12.2019 21:03 22,7 C -1,0 C 0,1 C 80 % 1 % 1022 hPa 0,0 l/m 0,3 km/h (0 Bft) 0 min 0 min
04.12.2019 21:06 22,7 C -1,0 C 0,1 C 81 % 1 % 1022 hPa 0,0 l/m 3,2 km/h (1 Bft) 0 min 0 min
04.12.2019 21:09 22,7 C -0,9 C 0,2 C 81 % 1 % 1022 hPa 0,0 l/m 2,8 km/h (1 Bft) 0 min 0 min
04.12.2019 21:12 22,7 C -0,8 C 0,1 C 81 % 1 % 1022 hPa 0,0 l/m 3,3 km/h (1 Bft) 0 min 0 min
04.12.2019 21:15 22,7 C -0,8 C 0,4 C 81 % 1 % 1022 hPa 0,0 l/m 0,4 km/h (0 Bft) 0 min 0 min
04.12.2019 21:18 22,7 C -0,8 C 0,2 C 81 % 1 % 1022 hPa 0,0 l/m 4,7 km/h (1 Bft) 0 min 0 min
04.12.2019 21:21 22,7 C -0,8 C 0,1 C 81 % 1 % 1022 hPa 0,0 l/m 3,2 km/h (1 Bft) 0 min 0 min
04.12.2019 21:24 22,7 C -0,8 C 0,3 C 81 % 1 % 1022 hPa 0,0 l/m 0,4 km/h (0 Bft) 0 min 0 min
04.12.2019 21:27 22,8 C -0,9 C 0,3 C 80 % 1 % 1022 hPa 0,0 l/m 2,4 km/h (1 Bft) 0 min 0 min
04.12.2019 21:30 22,8 C -0,9 C 0,3 C 81 % 1 % 1022 hPa 0,0 l/m 2,0 km/h (1 Bft) 0 min 0 min
04.12.2019 21:33 22,8 C -1,0 C 0,1 C 81 % 1 % 1022 hPa 0,0 l/m 0,7 km/h (0 Bft) 0 min 0 min
04.12.2019 21:36 22,7 C -1,0 C 0,2 C 81 % 1 % 1022 hPa 0,0 l/m 2,2 km/h (1 Bft) 0 min 0 min
04.12.2019 21:39 22,8 C -1,0 C 0,2 C 81 % 1 % 1022 hPa 0,0 l/m 1,6 km/h (1 Bft) 0 min 0 min
04.12.2019 21:42 22,8 C -1,0 C 0,2 C 81 % 1 % 1022 hPa 0,0 l/m 3,0 km/h (1 Bft) 0 min 0 min
04.12.2019 21:45 22,8 C -1,0 C 0,2 C 81 % 1 % 1022 hPa 0,0 l/m 0,0 km/h (0 Bft) 0 min 0 min
04.12.2019 21:48 22,8 C -1,2 C 0,1 C 81 % 1 % 1022 hPa 0,0 l/m 0,2 km/h (0 Bft) 0 min 0 min
04.12.2019 21:51 22,8 C -1,2 C -0,2 C 81 % 1 % 1022 hPa 0,0 l/m 0,5 km/h (0 Bft) 0 min 0 min
04.12.2019 21:54 22,8 C -1,3 C -0,2 C 81 % 1 % 1022 hPa 0,0 l/m 0,0 km/h (0 Bft) 0 min 0 min
04.12.2019 21:57 22,8 C -1,4 C 0,0 C 81 % 1 % 1022 hPa 0,0 l/m 0,6 km/h (0 Bft) 0 min 0 min
04.12.2019 22:00 22,8 C -1,4 C 0,1 C 81 % 1 % 1022 hPa 0,0 l/m 1,5 km/h (1 Bft) 0 min 0 min
04.12.2019 22:03 22,8 C -1,3 C 0,0 C 81 % 1 % 1022 hPa 0,0 l/m 3,1 km/h (1 Bft) 0 min 0 min
04.12.2019 22:06 22,8 C -1,3 C 0,1 C 81 % 1 % 1022 hPa 0,0 l/m 1,6 km/h (1 Bft) 0 min 0 min
04.12.2019 22:09 22,8 C -1,3 C 0,2 C 81 % 1 % 1022 hPa 0,0 l/m 1,6 km/h (1 Bft) 0 min 0 min
04.12.2019 22:12 22,8 C -1,4 C 0,2 C 81 % 1 % 1022 hPa 0,0 l/m 0,0 km/h (0 Bft) 0 min 0 min
04.12.2019 22:15 22,8 C -1,4 C 0,0 C 81 % 1 % 1022 hPa 0,0 l/m 3,1 km/h (1 Bft) 0 min 0 min
04.12.2019 22:18 22,8 C -1,4 C 0,1 C 81 % 1 % 1022 hPa 0,0 l/m 0,1 km/h (0 Bft) 0 min 0 min
04.12.2019 22:21 22,8 C -1,4 C -0,2 C 81 % 1 % 1022 hPa 0,0 l/m 2,0 km/h (1 Bft) 0 min 0 min
04.12.2019 22:24 22,8 C -1,4 C -0,2 C 81 % 1 % 1022 hPa 0,0 l/m 0,3 km/h (0 Bft) 0 min 0 min
04.12.2019 22:27 22,8 C -1,4 C 0,0 C 81 % 1 % 1022 hPa 0,0 l/m 0,4 km/h (0 Bft) 0 min 0 min
04.12.2019 22:30 22,8 C -1,4 C 0,0 C 81 % 1 % 1022 hPa 0,0 l/m 0,3 km/h (0 Bft) 0 min 0 min
04.12.2019 22:33 22,8 C -1,4 C 0,1 C 81 % 1 % 1022 hPa 0,0 l/m 0,3 km/h (0 Bft) 0 min 0 min
04.12.2019 22:36 22,8 C -1,4 C 0,0 C 81 % 1 % 1021 hPa 0,0 l/m 0,0 km/h (0 Bft) 0 min 0 min
04.12.2019 22:39 22,8 C -1,4 C 0,0 C 81 % 1 % 1022 hPa 0,0 l/m 9,0 km/h (2 Bft) 0 min 0 min
04.12.2019 22:42 22,8 C -1,4 C -0,1 C 81 % 1 % 1022 hPa 0,0 l/m 2,8 km/h (1 Bft) 0 min 0 min
04.12.2019 22:45 22,8 C -1,4 C -0,1 C 81 % 1 % 1022 hPa 0,0 l/m 0,1 km/h (0 Bft) 0 min 0 min
04.12.2019 22:48 22,8 C -1,4 C -0,1 C 81 % 1 % 1022 hPa 0,0 l/m 0,1 km/h (0 Bft) 0 min 0 min
04.12.2019 22:51 22,8 C -1,4 C 0,0 C 81 % 1 % 1022 hPa 0,0 l/m 3,5 km/h (1 Bft) 0 min 0 min
04.12.2019 22:54 22,8 C -1,4 C -0,1 C 81 % 1 % 1022 hPa 0,0 l/m 3,5 km/h (1 Bft) 0 min 0 min
04.12.2019 22:57 22,8 C -1,4 C -0,3 C 81 % 1 % 1022 hPa 0,0 l/m 4,0 km/h (1 Bft) 0 min 0 min
04.12.2019 23:00 22,8 C -1,5 C -0,3 C 82 % 1 % 1022 hPa 0,0 l/m 4,6 km/h (1 Bft) 0 min 0 min
04.12.2019 23:03 22,8 C -1,4 C -0,2 C 82 % 1 % 1022 hPa 0,0 l/m 5,0 km/h (1 Bft) 0 min 0 min
04.12.2019 23:06 22,8 C -1,4 C -0,1 C 82 % 1 % 1022 hPa 0,0 l/m 5,5 km/h (1 Bft) 0 min 0 min
04.12.2019 23:09 22,8 C -1,4 C -0,3 C 82 % 1 % 1022 hPa 0,0 l/m 4,0 km/h (1 Bft) 0 min 0 min
04.12.2019 23:12 22,8 C -1,4 C -0,1 C 82 % 1 % 1022 hPa 0,0 l/m 4,6 km/h (1 Bft) 0 min 0 min
04.12.2019 23:15 22,8 C -1,4 C 0,0 C 82 % 1 % 1022 hPa 0,0 l/m 3,9 km/h (1 Bft) 0 min 0 min
04.12.2019 23:18 22,8 C -1,4 C 0,1 C 82 % 1 % 1022 hPa 0,0 l/m 4,4 km/h (1 Bft) 0 min 0 min
04.12.2019 23:21 22,8 C -1,4 C 0,0 C 82 % 1 % 1022 hPa 0,0 l/m 2,6 km/h (1 Bft) 0 min 0 min
04.12.2019 23:24 22,8 C -1,6 C 0,0 C 82 % 1 % 1022 hPa 0,0 l/m 3,1 km/h (1 Bft) 0 min 0 min
04.12.2019 23:27 22,8 C -1,5 C 0,0 C 82 % 1 % 1022 hPa 0,0 l/m 9,0 km/h (2 Bft) 0 min 0 min
04.12.2019 23:30 22,8 C -1,4 C -0,1 C 82 % 1 % 1022 hPa 0,0 l/m 7,8 km/h (2 Bft) 0 min 0 min
04.12.2019 23:33 22,8 C -1,4 C 0,0 C 82 % 1 % 1022 hPa 0,0 l/m 5,2 km/h (1 Bft) 0 min 0 min
04.12.2019 23:36 22,8 C -1,4 C -0,1 C 82 % 1 % 1022 hPa 0,0 l/m 5,9 km/h (2 Bft) 0 min 0 min
04.12.2019 23:39 22,8 C -1,5 C 0,0 C 82 % 1 % 1022 hPa 0,0 l/m 4,8 km/h (1 Bft) 0 min 0 min
04.12.2019 23:42 22,8 C -1,5 C -0,1 C 82 % 1 % 1022 hPa 0,0 l/m 5,7 km/h (1 Bft) 0 min 0 min
04.12.2019 23:45 22,8 C -1,5 C -0,1 C 82 % 1 % 1022 hPa 0,0 l/m 7,5 km/h (2 Bft) 0 min 0 min
04.12.2019 23:48 22,8 C -1,6 C -0,3 C 82 % 1 % 1022 hPa 0,0 l/m 2,5 km/h (1 Bft) 0 min 0 min
04.12.2019 23:51 22,8 C -1,6 C -0,3 C 82 % 1 % 1022 hPa 0,0 l/m 6,4 km/h (2 Bft) 0 min 0 min
04.12.2019 23:54 22,8 C -1,6 C 0,0 C 82 % 1 % 1022 hPa 0,0 l/m 1,4 km/h (1 Bft) 0 min 0 min
04.12.2019 23:57 22,8 C -1,6 C -0,2 C 82 % 1 % 1022 hPa 0,0 l/m 1,4 km/h (1 Bft) 0 min 0 min
_ Min-Zeit 11:21 05:57 06:30 13:51 - 22:36 - 00:00 - -
Minimum _ 20,6 C -4,8 C -2,9 C 66 % - 1021 hPa - 0,0 km/h (0 Bft) - -
_ Max-Zeit 21:27 13:42 13:39 01:33 10:24 00:00 00:00 13:48 07:54 00:00
Maximum _ 22,8 C 4,9 C 2,6 C 84 % 84 % 1028 hPa 0,0 l/m 14,0 km/h
S-SO (3 Bft)
3 min 0 min
Durchschnitt _ 22,3 C -1,0 C -0,2 C 79 % #3:21 h 1024 hPa #0,0 l/m 2,2 km/h (1 Bft) #3:21 h #0 min.